Regional Weather Roundup
Issued by NWS Cleveland, OH

Home | Current Version | Previous Version | Graphics & Text | Print | Product List | Glossary On
Versions: 1 2 3 4 5 6 7 8 9 10 11 12 13 14 15 16 17 18 19 20 21 22 23 24 25 26 27 28 29 30 31 32 33 34 35 36 37 38 39 40 41 42 43 44 45 46 47 48 49 50
000
ASUS41 KCLE 030800
RWRCLE
OHIO REGIONAL WEATHER ROUNDUP
NATIONAL WEATHER SERVICE WILMINGTON, OH
400 AM EDT THU SEP 03 2015

NOTE: "FAIR" INDICATES FEW OR NO CLOUDS BELOW 12,000 FEET WITH NO
SIGNIFICANT WEATHER AND/OR OBSTRUCTIONS TO VISIBILITY.

OHZ001>008-015>018-024>027-034-035-043-044-030900-
   NORTHWEST OHIO

CITY           SKY/WX    TMP DP  RH WIND       PRES   REMARKS
DEFIANCE       MOCLDY    71  66  84 CALM      29.99S
FINDLAY        MOCLDY    68  65  90 SW5       29.99R
TOLEDO EXPRESS CLOUDY    73  68  84 W5        29.98R
TOLEDO EXEC    CLOUDY    73  68  84 SW6       29.99R
LIMA           PTCLDY    69  66  90 CALM      30.01R
$$

OHZ009>014-019>023-028>033-038-089-030900-
   NORTHEAST OHIO

CITY           SKY/WX    TMP DP  RH WIND       PRES   REMARKS
CLE-HOPKINS    MOCLDY    71  67  87 CALM      29.99R
CLE-LAKEFRONT  CLEAR     73  67  81 SW8       29.96R
CUY CO. ARPT   NOT AVBL
LORAIN-ELYRIA  PTCLDY    69  66  90 W5        29.98R
ASHTABULA      MOCLDY    69  68  96 CALM      29.98R FOG
AKRON-CANTON   PTCLDY    70  66  87 W5        29.99S FOG
WOOSTER        NOT AVBL
MANSFIELD      MOCLDY    71  66  84 W8        30.01S
YOUNGSTOWN     MOCLDY    69  67  93 CALM      29.98S
$$

OHZ042-051>053-060>062-070>072-077>081-030900-
  SOUTHWEST OHIO

CITY           SKY/WX    TMP DP  RH WIND       PRES   REMARKS
CINC-COVINGTON PTCLDY    69  66  90 CALM      30.02S
CINC-LUNKEN    CLEAR     67  67 100 NE3       30.01S FOG
HAMILTON       CLEAR     67  66  97 CALM      30.02R FOG
DAYTON         NOT AVBL
WRIGHT-PAT AFB NOT AVBL
DAYTON GENERAL CLEAR     67  65  93 NE3       30.02R
WILMINGTON     PTCLDY    65  63  93 SW3       30.02S
$$

OHZ036-037-039>041-045>050-054>059-063>069-073>076-082>088-030900-
  CENTRAL AND SOUTHEAST OHIO

CITY           SKY/WX    TMP DP  RH WIND       PRES   REMARKS
COLUMBUS       CLOUDY    71  68  90 CALM      29.99S
OSU AIRPORT    PTCLDY    69  67  93 W3        30.00S
BOLTON FIELD   NOT AVBL
RICKENBACK AFB NOT AVBL
NEWARK         MOCLDY    69  67  93 CALM      29.99S
MARION         MOCLDY    71  67  87 CALM      30.01R
LANCASTER      MOCLDY    69  66  90 CALM      30.00S FOG
ZANESVILLE     MOCLDY    70  65  84 CALM      29.99F HAZE
NEW PHILLY     PTCLDY    67  66  97 CALM      29.99F FOG
$$



USA.gov is the U.S. government's official web portal to all federal, state and local government web resources and services.